IRIDIUM 33 DEB, 46972

Orbit data source: Space-Track

IRIDIUM 33 DEB, 46972 is space debris in LEO originally from a launch on Sun, 14 Sep 1997 UTC launched from the Tyuratam Missile And Space Complex (TTMTR). The debris from Iridium 33, an American commercial communications satellite, has been tracked extensively since its accidental collision with the defunct Russian satellite Cosmos 2251 in 2009. This event, occurring at high speed in low Earth orbit (LEO), generated thousands of pieces of space debris, significantly increasing the risk of further collisions. The Iridium 33 debris cloud has impacted space traffic management and orbital debris mitigation strategies, making it a subject of ongoing study in space situational awareness.

Loading next visibility...
Identifier
46972, 1997-051ACE
Orbit
LEO
Country
Flag of USUS
Related business
Manufacturer
Unknown
Mission
Spacecraft
Bus & Motor
Unknown
Mass
Unknown
Launch date (UTC)
1997-09-14 (28 years ago)
Launch vehicle
Unknown
Launch site
Tyuratam Missile And Space Complex (TTMTR)
Object type
Payload
Rocket body
Debris
Shape & HBR
Unknown
Radar Cross Section
Small (<0.1 m²)

Expand to show TLE details & history
Last TLE update: 3 days ago

TLE from 3 days ago
0 IRIDIUM 33 DEB
1 46972U 97051ACE 25258.26396156  .00002268  00000-0  57981-3 0  9991
2 46972  86.3813  77.4761 0011223  52.2447  70.8335 14.50037367602903
Epoch: 2025-09-15T06:20Z
TLE epoch observation values (Epoch: 2025-09-15T06:20:06.278Z)
Latitude
56.72451°
Longitude
162.47852°
Altitude
732.503 km
Speed
7.496 km/s
True Right ascension
16h 47m 54s
True Declination
56° 33' 58"
Sunlit
Object was in daylight at epoch
Visualization orbit readout
Latitude
Unknown
Longitude
Unknown
Altitude
Unknown
Speed
Unknown
Apparent Right ascension
Unknown
Apparent Declination
Unknown
Sunlit
N/A
Visualization observer readout
Local Sidereal Time
15:39:20
Azimuth
Unknown
Elevation
Unknown
Doppler factor
Unknown
Orbital elements
Apogee altitude
730.438 km
Perigee altitude
714.5 km
Semi-major axis
7,100.606 km
Eccentricity
0.00112
Inclination
86.3813°
RAAN
77.4761°
Arg. of periapsis
52.2447°
True anomaly
70.95503°
Mean anomaly
70.8335°
Eccentric anomaly
70.89426°
Mean motion
3.62744 °/min
Orbital period
99.24 mins
BSTAR
0.00057981
Loading maneuver chart data...
Computing Atmospheric mass density...

Documentation

Showing up to 5 results
|